FENGYUN 1C DEB, 37435

Orbit data source: Space-Track

FENGYUN 1C DEB, 37435 is space debris in SSO originally from a launch on Mon, 10 May 1999 UTC launched from the Taiyaun Space Center, China (TSC). Fengyun 1C debris stems from the Chinese weather satellite Fengyun-1C, which was intentionally destroyed by a Chinese anti-satellite missile in 2007. This event dramatically increased the amount of space debris, with thousands of trackable fragments posing hazards to satellites and human spaceflight. The Fengyun 1C debris cloud has become a focal point in discussions about space sustainability and the need for international regulations to prevent the creation of new debris.

Loading next visibility...
Identifier
37435, 1999-025EHD
Orbit
SSO
Country
Flag of CNCN / PRC
Related business
Manufacturer
Unknown
Mission
Spacecraft
Bus & Motor
Unknown
Mass
Unknown
Launch date (UTC)
1999-05-10 (27 years ago)
Launch vehicle
Unknown
Launch site
Taiyaun Space Center, China (TSC)
Object type
Payload
Rocket body
Debris
Shape & HBR
Unknown shape, 0.1 m
Radar Cross Section
Small (<0.1 m²)

Expand to show TLE details & history
Last TLE update: 6 days ago

TLE from 6 days ago
0 FENGYUN 1C DEB
1 37435U 99025EHD 26249.35090214  .00000995  00000-0  45399-3 0  9990
2 37435  98.6282 285.5019 0038898 318.2186  41.6024 14.23417208927450
Epoch: 2026-09-06T08:25Z
TLE epoch observation values (Epoch: 2026-09-06T08:25:17.944Z)
Latitude
-0.00009°
Longitude
173.72987°
Altitude
795.866 km
Speed
7.466 km/s
True Right ascension
19h 02m 00s
True Declination
0° 00' 00"
Sunlit
Object was in full shadow at epoch
Visualization orbit readout
Latitude
Unknown
Longitude
Unknown
Altitude
Unknown
Speed
Unknown
Apparent Right ascension
Unknown
Apparent Declination
Unknown
Sunlit
N/A
Visualization observer readout
Local Sidereal Time
08:28:21
Azimuth
Unknown
Elevation
Unknown
Doppler factor
Unknown
Orbital elements
Apogee altitude
838.933 km
Perigee altitude
783.005 km
Semi-major axis
7,189.106 km
Eccentricity
0.00389
Inclination
98.6282°
RAAN
285.5019°
Arg. of periapsis
318.2186°
True anomaly
41.89943°
Mean anomaly
41.6024°
Eccentric anomaly
41.75081°
Mean motion
3.56066 °/min
Orbital period
101.1 mins
BSTAR
0.00045399
Loading maneuver chart data...
Computing Atmospheric mass density...
Loading historical data...
Loading historical data...
Loading historical data...
Loading historical data...
Loading historical data...
Loading historical data...
Loading historical data...

Documentation

Showing up to 5 results
|